Погода в Бунчуковке

Украина / Луганская область     49°28′55″N   38°38′43″E
темп.,
°C
ветер,
м/с
пор.,
м/с
влажн.,
%
обл.,
%
осадки,
мм/ч
давл.,
гПа
погр.,
м
26 февраля, пт
пт2623:00+2з61298100 0.6 1023285
02:00+2з51198100 1.2 1022242
05:00+2з51199100 0.0 1021219
08:00+2з5999100 0.0 1021195
11:00+4з610100100 0.0 1021335
14:00+5з7139499 0.0 1019512
17:00+4з7139591 0.0 1017493
20:00+3з6129695 0.0 1017394
27 февраля, сб
сб2723:00+3з51197100 0.0 1015303
02:00+3з51196100 0.1 1014367
05:00+2з51295100 0.0 1012382
08:00+2з61196100 0.3 1012457
11:00+3з61090100 0.1 1011589
14:00+5з6108199 0.2 1011904
17:00+2зсз51193100 0.2 1011499
20:00+1зсз599597 0.2 1011453
28 февраля, вс
вс2823:00+1зсз5997100 0.1 1012422
02:00+1сз4894100 0.2 1013507
05:000сз499396 0.1 1014404
08:00−1ссз587772 0.1 1016643
11:000ссз57660 0.0 1017782
14:00+1ссз57640 0.0 1018841
17:00−1ссз487522 0.0 1018402
20:00−2ссз478258 0.0 1021724
1 марта, пн
пн123:00−2с4676100 0.0 1022805
02:00−3с3582100 0.1 1023519
05:00−3с457098 0.1 1023862
08:00−3с356885 0.1 1025711
11:00−1с456290 0.0 1026962
14:00−1с346195 0.0 10271038
17:00−2с3569100 0.0 1028642
20:00−2с346797 0.0 1030866
2 марта, вт
вт223:00−3ссз237192 0.0 1030108
02:00−3з127657 0.0 103069
05:00−3з3677100 0.0 1029441
08:00−2з5871100 0.0 1028538
11:00+1з696592 0.0 1026805
14:00+3з7106896 0.0 1023928
17:00+2з71382100 0.0 1021665
20:00+2з71387100 0.0 1020609